Weather History for KMHT - September, 2013

Change the Weather History Date:

Sunday, September 1, 2013

  Actual Average Record
Temperature  
Mean Temperature 78 °F -  
Max Temperature 84 °F 77 °F 93 °F (1973)
Min Temperature 72 °F 51 °F 38 °F (1970)
Cooling Degree Days 13    
Growing Degree Days 28 (Base 50)    
Moisture  
Dew Point 70 °F    
Average Humidity 80    
Maximum Humidity 94    
Minimum Humidity 61    
Precipitation  
Precipitation 0.11 in - - ()
Sea Level Pressure  
Sea Level Pressure 29.85 in    
Wind  
Wind Speed 4 mph (South)    
Max Wind Speed 9 mph    
Max Gust Speed 17 mph    
Visibility 9 miles    
Events Rain , Thunderstorm    
Averages and records for this station are not official NWS values.
T = Trace of Precipitation, MM = Missing Value Source: NWS Daily Summary

Daily Weather History Graph

Daily Weather History Graph

Search for Another Location

Airport or City:

Trip Planner

Search our weather history database for the weather conditions in past years. The results will help you decide how hot, cold, wet, or windy it might be!

Date:

Astronomy

Sep. 01, 2013 Rise Set
Actual Time 6:10 AM EDT 7:20 PM EDT
Civil Twilight 5:41 AM EDT 7:49 PM EDT
Nautical Twilight 5:06 AM EDT 8:23 PM EDT
Astronomical Twilight 4:29 AM EDT 9:00 PM EDT
Moon 2:25 AM EDT (9/1) 4:58 PM EDT (9/1)
Length of Visible Light 14h 07m
Length of Day
13h 09m
Waning Crescent, 14% of the Moon is Illuminated
Sep 1
Waning Crescent
Sep 5
New
Sep 12
First Quarter
Sep 19
Full
Sep 26
Last Quarter

Hourly Weather History & Observations

Time (EDT) Temp. Heat Index Dew Point Humidity Pressure Visibility Wind Dir Wind Speed Gust Speed Precip Events Conditions
12:53 AM 73.9 °F - 71.1 °F 91% 29.81 in 7.0 mi South 6.9 mph - N/A   Scattered Clouds
1:53 AM 73.0 °F - 71.1 °F 93% 29.80 in 7.0 mi Calm Calm - N/A   Scattered Clouds
2:53 AM 73.0 °F - 71.1 °F 93% 29.81 in 6.0 mi Calm Calm - N/A   Mostly Cloudy
3:53 AM 75.0 °F - 70.0 °F 84% 29.80 in 10.0 mi SW 9.2 mph 17.3 mph N/A   Partly Cloudy
4:53 AM 73.9 °F - 71.1 °F 91% 29.83 in 9.0 mi SSW 4.6 mph - 0.00 in   Mostly Cloudy
5:53 AM 73.0 °F - 69.1 °F 87% 29.82 in 10.0 mi WNW 3.5 mph - N/A   Partly Cloudy
6:53 AM 72.0 °F - 66.9 °F 84% 29.85 in 10.0 mi South 4.6 mph - N/A   Partly Cloudy
7:53 AM 72.0 °F - 66.9 °F 84% 29.87 in 10.0 mi South 3.5 mph - N/A   Mostly Cloudy
8:53 AM 73.9 °F - 68.0 °F 82% 29.87 in 10.0 mi WSW 3.5 mph - N/A   Clear
9:53 AM 75.9 °F - 66.9 °F 74% 29.88 in 10.0 mi Calm Calm - N/A   Partly Cloudy
10:53 AM 75.9 °F - 68.0 °F 76% 29.89 in 10.0 mi SSE 3.5 mph - N/A   Overcast
11:53 AM 80.1 °F 82.9 °F 69.1 °F 69% 29.88 in 10.0 mi Calm Calm - N/A   Mostly Cloudy
12:53 PM 82.0 °F 84.9 °F 68.0 °F 62% 29.87 in 10.0 mi SE 6.9 mph - N/A   Overcast
1:53 PM 82.0 °F 85.5 °F 69.1 °F 65% 29.86 in 10.0 mi SSW 4.6 mph - N/A   Partly Cloudy
2:53 PM 84.0 °F 87.8 °F 69.1 °F 61% 29.85 in 10.0 mi WSW 5.8 mph - N/A   Partly Cloudy
3:53 PM 84.0 °F 88.4 °F 70.0 °F 63% 29.84 in 10.0 mi Calm Calm - N/A   Scattered Clouds
4:53 PM 84.9 °F 89.4 °F 70.0 °F 61% 29.84 in 10.0 mi Variable 5.8 mph - N/A   Scattered Clouds
5:53 PM 81.0 °F 84.9 °F 71.1 °F 72% 29.85 in 10.0 mi South 4.6 mph - N/A   Partly Cloudy
6:29 PM 80.6 °F 83.9 °F 69.8 °F 70% 29.83 in 10.0 mi South 4.6 mph - N/A Rain , Thunderstorm Thunderstorms and Rain
6:53 PM 79.0 °F - 70.0 °F 74% 29.86 in 10.0 mi South 5.8 mph - N/A Rain , Thunderstorm Thunderstorms and Rain
7:24 PM 78.8 °F - 69.8 °F 74% 29.83 in 10.0 mi SE 5.8 mph - 0.00 in   Mostly Cloudy
7:27 PM 78.8 °F - 69.8 °F 74% 29.83 in 10.0 mi SE 4.6 mph - 0.00 in   Mostly Cloudy
7:53 PM 78.1 °F - 71.1 °F 79% 29.87 in 10.0 mi East 3.5 mph - 0.00 in   Overcast
8:53 PM 77.0 °F - 72.0 °F 84% 29.88 in 7.0 mi SSW 5.8 mph - 0.04 in Rain Light Rain
9:02 PM 75.2 °F - 73.4 °F 94% 29.84 in 2.0 mi Calm Calm - N/A Rain , Thunderstorm Thunderstorms and Rain
9:24 PM 77.0 °F - 73.4 °F 89% 29.84 in 10.0 mi ESE 3.5 mph - N/A Rain , Thunderstorm Thunderstorms and Rain
9:53 PM 75.9 °F - 73.0 °F 91% 29.88 in 10.0 mi SSE 4.6 mph - 0.07 in Thunderstorm Thunderstorm
10:53 PM 75.0 °F - 73.0 °F 94% 29.89 in 10.0 mi South 4.6 mph - N/A Thunderstorm Thunderstorm
11:23 PM 73.4 °F - 71.6 °F 94% 29.85 in 10.0 mi Calm Calm - N/A Thunderstorm Overcast
11:53 PM 73.9 °F - 72.0 °F 93% 29.88 in 10.0 mi Calm Calm - N/A Thunderstorm Overcast